Theta_e
291 289 287 288 289 291 290 291 292 288 288 287 285 283 284 285 285 286 287 289 289 289 288 289 289 290 291 292 293 290 288 289 290 290 291 291 291 291 291 291 292 292 293 292 293 293 293 294 295 296 297 297 299 303 305 304 303 304 303 302 302 303 303 302 302 300 300 299 299 299 298 296 295 295 295 294 294 294 295 296 297 297 298 299 299 299
292 289 288 291 292 291 292 291 288 288 288 288 285 286 286 284 286 288 291 290 288 290 284 285 286 289 290 292 293 290 287 289 290 291 291 292 292 292 291 292 292 293 291 290 291 292 292 293 294 295 296 297 299 302 304 304 303 302 303 302 301 302 302 302 302 302 301 300 300 298 295 294 294 295 294 292 293 293 293 293 294 294 295 296 296 296
288 288 292 293 290 290 290 289 289 290 289 286 287 285 285 285 285 289 288 289 289 289 288 287 287 290 292 292 293 290 291 292 293 293 295 294 293 292 292 292 292 291 291 290 292 291 292 293 293 294 296 297 300 302 303 304 303 302 302 303 302 301 301 302 302 302 299 297 296 295 294 293 290 290 291 291 291 291 290 290 291 291 292 293 293 293
286 286 293 292 290 290 289 287 288 288 288 286 284 285 284 283 287 285 286 287 291 289 285 284 286 289 291 291 293 294 293 293 293 293 294 294 294 294 294 293 293 292 292 290 291 291 292 292 293 294 295 297 299 302 303 304 303 303 301 302 302 301 302 301 300 298 296 295 293 292 291 291 291 290 290 290 290 289 288 288 289 289 289 290 290 290
289 290 292 292 291 292 290 287 287 287 287 284 286 284 283 285 285 288 287 288 287 289 286 288 288 290 292 292 293 294 290 292 295 293 293 293 294 295 294 292 293 293 292 291 290 291 291 291 293 294 296 296 299 302 302 302 303 303 302 302 302 302 301 299 296 295 294 292 291 290 290 291 290 290 290 290 288 288 288 288 288 287 288 288 287 287
289 291 290 291 289 289 289 287 287 289 285 285 284 289 290 288 288 286 285 288 283 283 284 287 282 280 282 284 288 292 289 291 292 292 294 295 295 294 293 294 293 293 293 293 291 291 292 293 293 293 294 296 299 302 303 302 303 303 303 302 301 300 298 296 295 294 294 292 291 291 291 290 289 289 290 290 288 287 287 286 285 285 286 286 285 285
290 291 292 290 290 288 288 288 286 290 287 285 287 288 291 289 287 286 286 286 280 281 286 285 283 281 281 289 289 288 286 290 292 290 294 295 295 293 294 294 293 292 291 291 291 291 291 292 292 293 294 296 299 301 302 302 302 301 302 302 300 298 297 296 295 294 294 292 292 293 293 292 291 290 288 287 287 287 286 286 285 284 284 283 284 284
290 290 289 287 288 287 286 286 288 290 288 283 285 285 287 287 286 286 286 287 283 281 284 284 282 282 285 289 292 293 292 293 293 295 296 297 296 296 295 294 292 292 292 291 291 292 292 292 293 293 295 296 299 300 302 301 300 300 300 300 298 296 296 295 294 294 294 293 292 292 292 291 291 290 286 285 285 285 285 285 284 283 282 283 283 284
291 289 288 288 288 285 288 289 288 292 289 285 287 286 285 288 285 284 286 282 283 283 284 283 285 284 281 284 286 289 289 290 292 295 295 296 296 296 296 295 293 292 292 292 291 291 292 292 293 294 294 296 298 299 301 301 299 299 298 298 297 296 295 294 294 294 293 294 294 293 292 290 288 286 285 285 286 285 284 283 283 281 281 281 282 282
289 291 291 293 291 288 288 286 289 293 289 287 286 287 285 284 283 281 280 285 280 280 283 283 285 282 285 283 287 285 287 290 293 295 296 296 295 295 294 293 292 290 290 291 292 292 292 293 293 293 293 294 297 298 299 299 297 297 296 295 295 294 294 294 294 293 293 293 293 292 291 288 285 285 283 283 283 283 283 282 281 280 281 280 281 281
291 292 292 292 290 291 288 287 287 291 290 289 287 289 286 283 281 279 280 279 281 277 285 284 285 286 282 284 288 288 289 292 294 293 293 292 291 292 292 292 291 289 289 290 290 290 291 291 292 292 293 294 294 295 297 297 296 295 295 294 294 294 293 293 292 292 292 292 292 291 290 287 285 284 283 282 281 281 281 281 280 280 280 280 280 280
290 291 291 290 291 290 291 289 288 289 289 292 288 283 285 286 279 277 274 276 276 277 281 281 284 285 280 280 284 291 290 288 291 293 293 291 291 291 289 288 288 288 289 289 289 289 289 290 290 291 292 292 293 293 295 296 295 294 294 294 293 292 292 292 292 292 291 291 290 290 289 287 285 284 283 282 281 281 281 280 280 280 280 279 280 280
286 288 287 290 292 293 289 289 289 289 291 289 287 288 281 275 274 274 272 275 274 278 279 279 283 281 284 288 287 290 292 294 292 292 293 292 293 293 289 288 288 288 287 288 289 289 289 290 291 291 292 291 291 293 295 296 295 294 294 294 293 291 291 291 292 291 290 290 288 288 287 286 285 284 284 283 282 281 281 280 280 279 280 280 280 280
284 283 286 290 291 292 294 290 285 286 289 288 289 284 280 274 274 271 270 266 270 276 279 280 281 282 282 286 293 295 297 298 295 292 292 292 293 293 292 292 288 287 288 288 288 289 289 290 291 291 292 292 292 292 293 294 295 295 294 294 293 292 291 290 289 290 290 289 288 287 286 285 285 284 283 283 282 281 281 281 280 280 281 280 281 280
278 279 286 290 289 292 294 295 293 289 289 290 287 290 285 279 272 271 270 274 275 274 278 279 278 277 279 285 288 291 294 291 289 288 289 289 289 289 288 287 287 286 286 287 288 289 289 290 291 291 292 292 292 291 292 292 294 294 294 293 293 292 290 289 289 289 288 288 287 286 285 285 284 284 283 283 283 281 281 281 281 281 281 281 280 280
284 283 282 293 290 293 293 293 292 289 289 286 285 286 282 284 280 279 275 271 271 273 273 274 281 281 285 286 287 287 286 288 287 287 287 289 286 284 286 288 288 287 287 287 287 288 288 289 290 291 291 291 291 291 291 291 293 294 294 293 293 292 290 289 288 288 288 287 286 285 284 283 284 283 283 282 282 281 281 281 281 280 280 280 280 280
282 282 286 290 290 292 294 291 292 291 286 285 287 285 286 284 287 280 275 276 276 272 279 275 281 283 284 290 294 295 292 292 288 290 289 289 286 283 287 288 286 287 287 287 287 288 288 288 289 290 290 290 290 290 290 291 292 293 294 293 293 292 290 289 288 287 287 287 285 284 283 283 282 282 281 281 281 281 280 280 280 280 279 279 280 280
284 281 287 287 289 289 287 288 288 288 288 287 282 286 286 286 285 282 278 270 268 273 276 278 282 281 279 284 283 287 287 292 292 293 293 290 287 287 291 291 288 287 287 287 286 286 287 288 289 289 290 290 290 290 290 290 291 292 293 293 293 291 289 288 287 286 285 284 284 283 282 282 282 282 281 281 281 281 280 280 279 279 279 279 280 281
289 282 285 285 286 288 288 291 290 289 288 288 284 288 289 281 280 281 276 274 268 272 275 276 277 281 285 286 287 287 286 290 291 292 288 291 292 291 292 292 286 285 285 286 286 286 287 287 288 289 289 290 290 290 290 290 290 290 291 293 293 291 290 288 287 285 284 284 284 283 282 281 281 281 281 281 281 280 280 279 279 279 279 279 280 280
290 283 283 286 286 287 287 290 285 285 289 288 289 288 285 283 278 278 281 275 276 272 269 277 277 282 284 286 288 292 289 290 292 288 289 291 291 291 291 291 287 286 286 287 286 287 287 287 288 288 289 288 288 288 288 288 288 288 289 290 291 290 289 287 286 284 283 283 283 283 282 281 281 281 280 280 280 280 280 280 280 279 279 280 280 280
287 286 278 283 285 286 285 286 287 288 286 285 285 283 286 283 284 281 280 278 277 269 269 273 278 281 283 288 289 293 293 292 291 291 290 290 290 290 290 291 287 286 286 287 287 287 287 287 287 287 288 288 287 287 287 288 287 288 288 288 289 289 287 286 285 284 284 283 283 282 281 281 280 280 280 279 280 280 280 279 280 280 280 280 280 279
287 284 282 282 282 283 285 284 288 291 293 290 290 287 289 284 281 278 280 281 274 277 278 270 280 286 285 287 293 292 293 292 291 291 290 289 290 290 290 288 287 287 286 287 287 287 286 286 286 286 285 285 286 286 286 287 287 287 287 288 287 288 287 287 285 284 284 283 283 282 281 281 280 280 280 279 279 279 279 279 280 280 279 279 279 278
292 285 283 281 284 286 285 289 286 286 287 287 287 286 290 288 286 279 277 279 275 281 278 275 271 285 289 289 290 291 290 292 290 289 291 290 290 290 289 287 286 287 287 287 287 287 286 286 286 286 286 286 286 286 286 286 287 287 286 286 286 287 287 287 286 284 284 283 282 282 281 281 280 280 279 279 279 279 279 279 279 279 279 279 278 278
294 285 283 282 282 281 284 284 285 284 288 287 286 282 287 288 288 287 286 282 283 278 279 275 274 284 286 283 283 282 281 281 282 285 291 290 289 290 288 286 285 285 285 285 286 285 286 286 285 285 285 285 285 286 286 287 287 287 286 286 286 286 286 286 285 284 283 283 282 281 281 280 280 280 279 279 279 279 279 279 279 279 279 279 278 277
288 286 287 282 278 281 281 285 284 286 287 283 283 286 290 291 289 282 280 276 279 282 282 281 279 286 288 283 282 282 286 285 286 285 285 289 290 290 290 288 286 285 284 284 285 285 284 285 285 285 285 285 285 286 286 286 286 286 286 285 285 285 285 285 285 284 283 282 282 281 281 280 280 280 279 279 279 278 278 278 279 279 279 278 278 277
292 290 288 283 280 278 277 279 281 283 284 285 282 287 287 289 288 285 283 281 281 285 284 284 285 287 286 284 289 285 285 286 285 285 281 285 288 290 291 289 286 284 285 285 284 284 284 285 285 285 285 285 285 286 286 286 286 286 286 285 285 285 284 284 284 284 283 283 282 281 281 280 280 280 280 280 279 279 278 279 279 279 279 278 278 277
288 291 291 289 287 284 286 286 285 287 284 283 286 287 287 288 290 289 287 283 283 282 282 287 289 289 287 287 287 289 284 286 288 287 289 289 287 287 287 288 286 286 286 285 285 285 284 284 285 285 285 285 285 285 286 286 286 286 286 285 284 285 284 284 284 284 284 283 282 281 281 281 280 280 280 280 280 279 278 278 279 279 278 278 278 277
285 288 291 291 290 291 292 289 287 291 287 288 287 286 288 288 288 287 286 285 284 280 282 288 287 287 290 289 288 286 286 285 285 286 287 288 288 289 290 287 288 285 284 284 284 284 285 285 285 285 285 285 285 285 285 286 286 286 285 285 284 284 284 284 283 283 284 282 282 281 281 281 281 280 280 280 280 279 279 278 278 278 278 278 278 278
289 288 291 291 290 292 292 290 288 290 290 289 288 288 287 288 287 286 287 289 287 287 285 288 287 288 291 292 293 294 293 294 294 292 293 295 291 288 286 287 287 286 285 284 286 286 285 285 285 285 285 285 285 284 285 285 285 285 285 285 284 284 284 284 283 283 283 282 282 282 282 281 281 280 280 280 280 279 279 279 279 279 278 278 278 279
290 288 290 292 289 290 291 288 287 288 287 287 288 288 289 288 288 288 289 290 289 289 291 292 287 288 293 294 292 293 293 295 297 295 291 289 291 292 289 289 288 288 286 286 287 287 287 287 286 285 285 285 285 284 284 285 285 285 285 285 284 283 284 283 283 283 282 282 282 282 281 281 281 281 281 280 280 280 279 279 278 278 278 279 279 279
291 288 292 287 287 288 290 289 286 288 287 285 286 288 288 289 289 289 289 289 289 289 290 290 290 289 295 290 292 291 292 291 290 291 293 293 292 291 292 291 290 289 288 288 288 287 287 287 286 285 285 285 285 285 285 285 285 285 285 285 284 284 283 283 283 283 282 282 282 282 282 282 281 281 281 280 280 280 279 279 279 279 279 279 279 278
290 286 286 287 286 287 290 288 285 285 285 285 285 285 286 287 285 287 286 289 287 287 289 288 287 288 292 290 295 289 290 291 293 293 292 293 292 290 290 290 290 290 289 289 289 288 287 286 286 286 286 286 286 285 285 285 285 285 285 285 284 284 283 283 283 283 283 283 283 282 282 282 281 281 280 280 280 280 280 280 279 278 278 278 278 278
288 288 288 286 286 286 290 287 284 284 284 283 285 287 288 288 289 288 290 290 291 292 288 287 288 294 296 291 290 289 289 292 292 293 294 294 293 292 291 290 291 291 291 291 290 289 288 287 287 287 287 286 286 286 286 285 284 284 285 284 284 283 282 282 282 283 283 283 282 282 281 281 281 281 280 280 280 280 280 279 279 278 278 278 278 278
287 289 289 288 286 287 286 285 285 284 279 281 293 295 293 290 288 287 287 289 290 291 291 294 294 296 295 293 291 293 291 292 294 296 297 297 295 291 289 289 291 292 292 291 290 290 289 288 288 288 288 287 287 286 285 285 285 285 284 284 283 282 282 282 282 282 282 282 282 281 280 280 281 280 280 280 280 280 279 279 278 279 279 278 278 278
288 288 288 287 287 286 285 285 283 279 281 292 291 294 297 295 292 291 292 292 291 291 292 291 293 293 295 295 295 294 294 294 293 293 290 288 288 290 292 293 292 290 290 290 290 289 289 289 288 287 286 286 285 284 284 284 284 284 283 283 282 282 282 282 282 282 282 281 281 280 280 280 280 280 280 280 280 279 279 279 278 278 278 278 278 278
287 288 287 286 286 285 283 285 278 281 288 288 288 286 286 292 291 290 289 291 292 292 292 291 293 295 296 296 296 295 292 290 289 289 287 288 289 292 292 292 293 291 290 291 290 291 290 288 288 287 286 285 285 284 284 284 284 283 282 282 282 281 281 281 281 280 280 280 280 280 280 280 280 280 280 280 279 278 279 278 278 278 278 278 278 278
292 289 288 285 288 283 284 284 285 289 287 289 289 286 290 289 288 289 286 289 293 294 293 292 293 294 294 294 295 295 290 288 289 294 288 291 292 291 292 293 293 293 291 290 289 290 288 287 287 287 286 285 285 284 283 283 283 282 281 281 281 281 280 281 280 280 281 280 279 279 280 280 280 280 280 279 278 278 278 278 278 278 278 277 278 278
294 288 288 286 284 288 285 283 283 283 280 286 291 285 293 292 293 294 291 289 294 293 295 294 292 293 293 294 293 291 289 289 290 293 291 290 291 291 291 291 290 287 285 285 285 285 284 284 284 284 285 284 283 283 283 283 283 282 281 281 280 280 280 280 280 280 280 280 280 280 280 280 280 280 279 279 278 278 279 279 279 278 278 277 277 277
292 294 290 288 286 285 284 282 282 280 284 291 286 289 291 291 293 291 289 286 292 290 292 293 293 293 293 293 292 287 287 286 289 293 288 283 282 282 284 285 283 283 283 283 284 283 282 283 284 283 283 283 282 282 282 283 282 282 282 282 281 281 280 280 280 280 281 281 281 280 280 280 280 280 279 279 279 279 279 279 278 278 277 277 277 277
289 289 288 286 285 286 284 283 281 286 286 287 286 285 285 286 292 291 281 282 291 289 291 292 293 293 293 292 287 288 289 286 289 293 283 281 281 281 282 282 283 282 282 281 282 282 283 283 283 282 283 282 282 281 282 282 282 282 282 282 282 282 281 282 282 282 282 282 281 281 281 280 280 280 280 279 279 279 279 279 277 277 277 276 276 276
285 286 287 284 286 286 286 284 286 286 289 287 285 282 283 290 292 285 280 290 288 287 287 292 291 292 289 285 287 288 289 294 288 281 279 281 283 282 281 281 281 281 281 281 282 284 283 282 284 283 282 282 281 282 282 283 283 283 282 282 282 282 283 283 284 283 283 282 281 281 280 280 280 280 280 280 279 279 278 278 278 277 276 276 275 274
286 287 286 287 285 285 285 284 285 287 289 286 282 286 286 290 282 283 290 283 287 282 278 281 287 281 282 286 286 290 288 280 279 280 281 280 281 280 280 280 280 281 281 281 282 282 283 282 282 282 281 281 282 282 283 283 282 282 282 282 282 283 284 284 283 283 282 281 281 281 280 280 280 280 280 279 279 278 277 277 278 277 276 275 274 274
286 285 282 284 286 286 285 284 283 279 288 288 287 285 285 288 287 286 283 280 280 280 280 279 281 280 282 284 284 284 281 279 279 280 279 280 280 280 280 280 280 281 281 282 282 281 283 283 282 281 281 281 282 282 283 284 283 283 283 282 283 283 283 282 282 282 281 281 280 279 279 279 279 279 279 278 278 278 277 276 276 275 275 274 274 273
290 286 286 286 289 283 283 281 282 288 286 289 291 288 289 286 286 281 283 282 279 278 279 280 280 280 281 282 282 278 278 278 279 279 279 279 279 279 279 280 280 280 280 280 280 281 282 282 281 281 280 281 282 283 285 285 284 283 283 283 282 281 281 281 281 281 280 279 279 279 279 278 278 278 278 278 278 278 277 276 275 274 274 274 274 273
290 289 289 287 290 288 286 288 288 284 288 285 282 283 285 284 282 281 282 283 282 280 278 280 281 280 280 279 278 278 278 278 279 279 280 279 279 279 279 279 279 279 279 280 280 280 280 281 281 281 280 281 282 283 285 285 284 282 282 281 281 281 281 280 280 280 279 279 278 278 278 277 277 277 277 277 277 277 277 275 274 274 272 272 273 272
284 284 285 287 287 285 285 285 285 283 285 284 283 283 283 282 282 282 283 284 282 281 281 281 281 281 278 278 279 278 277 278 278 278 278 278 278 278 278 279 279 278 279 279 280 281 281 281 282 281 281 280 281 282 283 283 284 283 282 279 280 280 280 279 279 279 279 278 277 277 276 276 276 276 276 276 277 277 277 276 274 275 273 272 272 272
284 284 286 286 287 287 285 285 284 286 286 285 285 285 284 283 282 283 283 284 284 282 281 278 283 281 278 278 280 279 279 279 280 280 280 279 279 279 278 278 278 278 279 278 278 280 282 282 282 281 281 280 279 279 280 279 279 280 279 278 279 279 279 279 279 278 277 277 276 275 275 276 275 274 274 274 274 275 275 275 274 274 273 272 272 272
286 286 286 284 286 286 286 284 284 282 282 284 284 284 285 285 283 283 283 281 280 280 279 280 281 279 278 278 279 281 280 280 281 281 280 280 280 280 279 278 278 278 277 277 278 281 282 282 281 280 280 278 277 277 277 276 274 274 276 276 277 277 278 278 278 277 276 275 274 274 274 275 271 273 273 272 273 274 272 271 273 273 273 272 272 271
286 288 283 286 285 285 284 282 280 283 285 285 283 283 285 285 284 282 279 279 279 279 279 279 280 281 280 280 279 280 280 280 281 282 281 280 280 280 280 280 280 280 279 280 280 281 282 281 280 279 278 276 275 276 275 272 270 269 271 272 272 275 277 276 274 274 272 271 272 272 271 272 272 272 273 270 267 265 266 270 269 271 269 266 267 270
286 284 285 285 282 283 286 286 283 285 284 287 285 285 284 284 282 280 278 279 279 279 279 280 278 278 279 279 279 281 282 280 280 281 281 281 280 279 278 278 278 278 278 277 277 278 278 277 278 276 275 273 273 273 271 268 267 266 266 266 266 270 273 272 271 270 268 269 268 267 267 267 266 265 266 267 266 265 265 270 274 270 269 267 271 275
287 286 286 284 285 286 286 285 288 288 286 287 289 288 286 285 281 280 280 281 280 280 281 281 280 279 279 280 280 282 281 280 280 281 280 279 278 277 277 276 277 276 275 274 275 274 274 273 273 273 272 270 269 268 266 264 263 263 263 263 265 267 270 271 271 268 267 267 267 266 266 265 264 263 263 264 264 264 265 264 267 276 276 275 275 275
Wind_Speed
1 3 5 8 9 9 6 9 7 4 4 4 3 3 3 3 5 4 4 4 1 0 7 9 9 9 11 10 10 4 4 6 10 11 11 11 10 10 11 12 14 13 17 4 7 7 8 8 7 6 5 5 4 5 7 6 6 6 7 7 7 5 6 6 6 5 6 8 4 3 5 6 3 3 6 7 6 5 4 5 4 4 4 4 5 6
3 2 8 10 10 10 10 5 4 5 3 2 3 1 3 2 6 5 1 2 2 4 3 3 5 11 13 12 11 2 4 10 13 14 14 15 13 12 13 14 14 15 1 4 6 8 7 8 8 6 6 6 8 7 7 8 7 6 6 8 7 6 6 6 6 6 4 3 3 6 4 5 4 5 6 7 5 5 5 5 5 4 4 4 4 5
1 8 12 10 3 2 1 3 2 3 1 2 2 2 1 7 4 10 5 2 1 2 9 6 6 11 12 11 9 7 11 10 11 14 15 13 13 13 13 14 12 6 10 6 9 6 8 8 8 8 7 7 7 7 8 8 7 7 7 7 7 7 6 5 6 5 4 3 4 2 5 5 6 4 4 6 6 6 6 6 5 4 4 4 4 4
0 7 17 3 6 4 1 2 4 1 1 3 1 1 7 3 1 6 1 2 0 3 3 2 6 11 11 8 13 14 12 10 9 10 14 13 14 15 15 14 13 14 12 13 13 14 11 10 9 7 9 10 8 8 8 9 10 8 7 7 8 8 7 6 5 6 6 7 7 8 6 4 2 6 5 7 6 6 6 6 5 5 4 3 4 3
10 3 2 7 7 8 4 2 4 3 5 3 5 4 3 4 6 7 5 2 2 2 2 5 8 10 9 12 8 7 3 7 13 8 11 14 13 14 7 6 12 15 14 13 9 8 10 11 14 14 11 8 10 11 11 10 10 8 9 8 8 8 7 6 7 8 8 9 7 7 7 6 9 7 5 7 5 4 5 5 5 4 4 3 3 4
9 7 3 6 3 4 4 2 6 7 7 3 5 10 10 6 6 4 3 3 6 4 3 2 5 5 5 5 9 11 5 6 5 5 13 16 14 9 11 16 9 10 9 14 15 16 16 15 10 7 10 12 12 12 11 9 9 8 9 9 8 7 7 8 9 11 9 7 9 7 7 6 4 6 5 7 9 7 6 5 3 5 4 3 3 3
6 1 5 6 6 5 5 5 4 7 7 1 6 10 11 8 4 1 1 2 3 3 1 1 3 10 2 8 5 6 4 10 7 6 13 11 11 6 11 12 9 11 9 7 8 9 11 13 12 12 12 14 14 12 9 8 8 8 9 10 9 8 7 8 10 10 9 9 9 12 10 10 9 9 1 1 3 5 6 5 6 5 4 3 4 4
2 3 4 4 5 5 4 4 5 11 6 4 3 3 4 4 5 4 3 5 5 1 3 1 2 5 13 9 6 9 8 10 11 14 14 13 11 11 10 10 9 10 10 11 13 15 15 15 17 19 19 15 14 9 9 8 8 10 10 11 9 7 9 8 9 10 9 10 9 8 7 7 8 8 8 5 5 4 5 8 6 5 4 4 3 4
7 5 6 5 2 4 7 6 4 10 8 4 1 6 5 6 4 3 3 2 0 3 10 1 0 3 7 7 2 1 5 8 15 16 15 13 12 11 10 10 10 9 10 11 12 14 16 17 17 14 12 11 9 10 11 10 9 8 8 9 9 9 9 9 11 10 8 8 9 10 9 8 3 4 7 6 4 6 5 9 6 5 4 4 3 3
2 4 8 10 8 8 5 1 8 11 5 2 5 8 7 7 6 4 4 2 2 3 11 5 5 4 15 4 3 2 1 9 13 14 13 11 9 8 9 8 6 6 6 8 11 11 12 12 10 7 5 6 9 7 7 6 7 8 8 8 10 10 8 9 10 9 9 8 7 8 10 12 9 6 5 5 7 6 6 8 6 5 5 5 4 3
1 4 3 4 7 4 5 2 3 5 2 7 3 7 6 8 4 3 6 2 2 2 15 6 9 7 11 3 8 5 8 9 9 6 6 7 7 8 7 6 5 6 6 7 7 6 7 5 6 7 10 10 6 6 8 8 8 8 9 10 10 10 8 9 10 9 10 8 9 8 12 14 14 10 9 8 6 7 6 8 7 6 6 4 5 4
1 2 1 1 3 3 4 4 4 2 3 6 2 3 4 2 6 3 4 4 1 8 3 2 6 7 9 5 6 7 3 4 8 7 8 7 6 7 4 4 4 4 5 5 6 6 7 7 8 8 10 11 10 8 9 9 8 9 9 10 11 9 9 9 10 10 10 10 9 8 11 13 13 14 10 11 11 9 10 9 9 6 6 5 5 4
3 5 2 5 4 9 3 7 3 3 0 4 6 7 5 4 5 3 3 2 6 9 1 0 5 2 16 11 6 9 12 11 8 9 9 7 9 8 5 4 4 4 4 6 7 7 9 12 13 13 12 10 11 13 13 12 10 9 10 11 12 11 9 10 10 11 10 10 9 9 9 10 11 12 13 11 11 9 9 9 10 9 8 7 7 6
7 2 2 3 2 4 8 8 3 1 5 5 8 7 6 0 1 5 4 2 6 7 4 1 1 7 3 8 15 22 21 16 9 7 9 9 10 9 8 8 4 5 6 7 7 9 10 11 12 12 13 13 12 12 13 12 12 10 10 11 13 12 10 9 9 10 11 10 9 9 9 10 10 11 11 10 11 10 8 8 9 10 10 10 10 10
4 5 8 7 5 5 10 12 12 7 11 9 2 11 9 9 7 4 5 5 6 4 2 4 2 8 5 4 2 9 9 7 6 6 7 7 7 7 8 8 7 5 5 6 8 10 11 11 11 12 12 12 12 12 12 11 11 11 11 12 13 12 11 10 10 9 10 10 9 9 8 10 9 10 10 9 9 10 10 8 9 8 7 8 8 8
11 7 6 8 1 8 13 2 7 6 3 1 2 6 4 10 7 5 5 3 1 3 4 2 7 5 6 3 7 5 7 9 6 8 5 10 4 4 6 8 7 6 5 6 7 7 8 8 8 9 10 10 10 12 11 11 11 12 13 12 13 13 12 11 10 9 10 10 9 9 9 9 9 8 8 7 7 8 8 9 9 9 8 6 7 6
2 5 1 2 4 6 6 3 2 5 8 5 6 8 6 2 5 0 2 1 1 2 13 4 9 7 8 9 13 15 10 13 5 8 7 10 4 4 8 8 6 6 5 6 9 8 7 6 7 9 9 9 10 11 13 14 13 15 14 14 14 12 11 12 11 10 9 10 10 9 9 9 8 10 11 12 11 10 8 7 6 7 7 6 7 7
9 6 1 3 5 1 0 0 3 4 4 8 4 8 2 2 4 4 4 3 2 4 8 3 9 5 2 12 3 1 6 14 11 12 12 7 5 6 11 10 7 8 8 7 5 5 6 7 8 8 9 10 12 14 13 13 11 11 11 14 14 12 14 12 11 11 10 10 10 9 10 9 11 11 10 10 12 10 9 7 6 6 7 8 7 7
5 4 1 1 0 4 2 1 3 2 3 7 6 4 7 4 2 1 4 4 1 5 8 5 3 8 10 10 1 2 5 9 11 12 6 9 9 10 11 12 5 5 4 5 7 7 7 9 10 11 11 10 9 9 10 9 9 8 8 11 13 14 13 13 10 9 8 10 9 10 11 12 10 9 10 9 9 9 10 10 9 9 8 7 7 8
1 5 2 1 2 1 1 3 10 5 1 2 3 3 1 3 1 5 7 3 4 5 2 8 4 12 9 8 11 12 10 11 10 1 6 9 9 8 8 9 5 5 6 6 7 8 8 9 10 11 11 12 12 11 9 9 7 9 9 9 10 10 10 10 11 10 11 10 10 10 10 10 10 10 9 10 11 11 11 10 10 9 9 9 7 7
3 2 6 1 3 2 3 6 11 13 10 1 2 4 1 0 1 4 0 5 4 4 4 5 12 6 6 8 12 14 14 13 7 7 6 8 8 9 9 8 3 5 6 8 8 9 9 9 9 9 8 8 6 6 7 9 11 10 8 10 10 13 12 12 11 10 11 10 10 11 12 11 10 11 9 9 10 11 10 9 9 9 8 8 8 8
3 3 8 3 1 7 8 2 5 11 14 15 17 15 17 11 5 4 8 2 2 3 7 3 16 10 4 4 11 9 9 6 6 7 7 6 8 8 8 4 5 6 7 8 8 7 7 7 8 6 5 5 7 8 10 9 8 10 11 11 10 10 11 12 11 10 10 9 10 11 11 11 8 9 8 10 10 10 10 9 9 8 8 9 8 8
7 3 6 7 9 10 3 0 1 2 0 1 2 6 8 8 6 5 6 7 0 6 3 3 1 18 4 6 8 7 6 8 6 6 7 6 7 7 5 4 4 6 7 8 9 8 7 8 9 10 11 11 12 12 11 11 12 12 10 9 9 11 11 11 11 9 9 10 9 10 10 9 9 9 10 11 10 11 10 9 8 8 10 9 9 7
6 3 3 2 1 3 3 4 1 2 2 2 2 1 6 10 10 10 6 5 9 2 3 2 2 12 3 0 2 1 4 2 2 5 9 6 6 7 6 5 5 4 4 4 5 5 6 7 7 8 9 10 10 11 12 11 10 10 10 10 9 12 11 10 9 9 9 8 9 9 9 10 9 11 11 12 10 11 10 9 9 8 9 9 8 9
6 4 8 3 1 1 4 2 3 1 1 4 3 4 9 10 8 1 4 2 2 10 8 8 13 13 2 3 2 1 1 3 5 6 5 5 6 7 7 6 4 2 2 4 5 6 6 7 10 12 11 12 12 11 11 12 12 11 11 10 11 9 9 10 9 10 9 9 10 10 10 11 10 12 12 12 10 11 10 10 10 9 10 9 9 8
9 8 10 9 12 11 9 10 15 13 11 3 2 6 7 10 12 5 6 4 6 8 13 9 16 5 2 2 1 1 1 5 6 6 5 6 6 8 8 7 4 3 5 5 6 6 10 11 9 10 11 11 11 12 12 12 12 11 11 11 9 10 10 10 9 10 11 10 11 11 12 12 11 12 13 12 11 12 11 10 10 10 8 9 10 9
4 5 12 12 13 16 17 8 4 11 6 8 12 13 13 12 11 11 6 3 16 4 8 17 21 13 6 1 2 5 2 6 6 4 3 5 6 9 9 9 5 5 6 7 8 8 6 8 13 12 11 12 11 11 11 12 12 11 11 11 10 10 10 11 11 11 12 11 11 11 12 12 12 11 11 11 10 9 8 9 8 9 10 9 10 11
3 5 12 16 20 22 20 11 9 18 16 18 16 14 16 14 14 14 15 19 6 5 15 18 7 11 21 7 7 6 7 6 7 8 7 7 8 10 9 5 5 5 4 4 5 8 12 12 10 12 13 12 12 10 10 10 11 12 13 13 11 11 11 10 11 12 12 12 11 12 13 11 10 10 10 8 8 8 8 8 8 9 8 8 10 11
5 7 12 13 18 22 22 13 13 14 16 16 18 17 18 19 15 19 23 20 10 14 21 12 13 17 22 13 13 13 11 12 9 11 13 12 7 6 5 6 7 7 5 6 10 10 11 12 14 14 12 12 10 13 13 10 11 11 11 12 13 13 14 12 12 12 12 12 13 13 11 10 9 8 9 9 9 9 10 10 10 8 8 9 9 9
3 6 8 14 17 18 19 9 11 14 8 7 15 19 20 20 23 26 26 21 16 16 17 19 8 15 18 12 9 10 8 13 13 8 5 3 10 12 8 8 9 9 8 10 12 13 13 14 11 10 10 11 14 14 13 14 14 14 15 14 12 12 11 11 13 13 13 13 13 11 10 10 10 10 10 11 11 11 11 10 10 10 10 10 9 8
7 7 7 5 9 15 19 9 8 12 10 9 8 12 17 21 25 27 22 16 15 16 19 17 18 20 20 1 6 6 7 6 4 6 11 12 8 10 12 11 10 10 10 11 11 11 12 10 8 8 11 15 16 17 16 15 13 11 11 12 13 14 12 12 13 13 13 13 11 10 10 10 11 10 12 11 10 8 10 11 9 9 9 9 9 9
7 5 3 3 7 12 14 11 10 6 6 8 8 12 18 23 21 15 12 9 10 18 21 17 18 22 13 7 7 4 6 8 11 12 10 10 10 10 10 11 11 11 11 13 13 10 8 9 11 13 15 17 16 15 14 14 13 12 14 13 13 12 11 12 13 13 13 12 11 11 11 11 11 11 11 10 10 10 8 8 8 9 9 8 9 9
5 5 6 4 11 13 17 5 7 5 2 7 13 21 27 18 12 6 13 18 21 20 16 16 22 21 18 6 6 4 6 11 10 10 12 12 11 10 11 12 12 12 13 13 11 10 10 12 14 16 15 12 13 15 17 13 11 15 14 11 10 9 11 13 12 12 11 11 11 10 10 10 11 11 9 9 8 8 8 8 8 8 9 11 8 5
3 9 10 5 11 13 5 6 5 7 14 16 21 21 16 19 13 12 16 18 16 13 14 18 20 21 16 11 9 13 10 13 15 16 14 11 8 6 8 10 13 14 12 9 8 9 10 9 9 12 14 12 11 11 8 11 12 8 7 8 7 10 10 11 11 11 10 9 9 9 9 9 9 9 8 7 8 8 8 8 10 8 6 5 5 8
8 8 9 3 7 11 4 6 4 16 15 16 2 1 9 11 17 23 22 17 15 14 15 17 21 22 21 15 13 13 12 11 11 13 4 1 3 6 10 13 12 11 11 10 10 9 10 11 10 8 8 9 9 8 9 8 8 8 8 9 10 8 9 9 9 8 9 9 8 8 8 9 9 9 8 8 8 7 8 9 7 7 7 7 9 9
7 9 4 3 2 3 4 8 11 13 5 4 4 3 2 4 8 9 10 13 15 19 21 23 26 25 23 20 15 12 8 8 7 7 5 6 9 12 11 11 10 8 10 11 11 12 10 9 9 9 8 5 9 10 10 10 8 10 9 8 10 8 7 8 8 8 7 8 8 9 9 9 8 8 8 8 8 8 9 9 9 9 7 7 7 5
14 9 7 7 6 10 5 12 16 4 9 7 7 5 9 9 10 14 13 16 19 19 19 20 24 22 19 18 17 15 3 5 9 14 7 10 14 9 10 13 12 12 10 9 7 9 6 6 7 9 7 8 9 9 9 9 9 10 10 10 9 9 8 8 9 9 9 9 8 8 9 10 10 9 8 8 8 8 8 8 8 7 6 8 8 9
10 12 8 12 7 11 10 9 5 6 13 17 15 1 6 6 12 13 9 12 12 17 20 19 18 20 20 19 17 8 2 6 14 18 3 9 7 7 10 10 8 6 5 4 1 1 3 4 3 5 8 8 8 9 10 11 11 11 11 11 10 10 9 9 10 9 8 9 9 10 10 10 9 9 8 8 9 9 8 7 5 7 6 9 9 10
11 12 9 13 4 9 11 10 9 10 14 13 3 9 11 9 15 8 8 13 13 8 13 15 17 21 19 16 15 3 2 8 15 14 0 2 5 3 5 6 3 3 3 3 4 4 3 4 5 7 7 9 10 8 10 12 13 12 11 11 11 11 11 11 10 9 10 9 8 8 8 8 8 8 9 9 9 9 9 9 9 7 6 7 7 8
16 12 9 12 13 10 10 11 11 6 9 6 6 2 4 5 11 11 7 11 8 9 12 15 20 19 16 14 5 6 9 8 14 11 0 3 3 3 1 2 2 2 2 3 3 3 5 7 8 7 9 9 9 9 11 11 11 10 10 9 10 11 11 12 10 8 7 7 9 8 8 7 8 8 9 10 8 7 8 6 6 7 8 8 7 7
12 10 13 17 15 15 17 10 4 6 5 4 6 3 5 8 11 11 15 12 3 6 7 14 15 14 9 6 8 8 12 13 5 1 2 1 0 2 3 2 2 1 3 3 4 5 5 4 7 8 8 7 10 10 10 11 10 9 8 9 9 11 10 8 7 8 8 8 8 8 8 7 8 10 9 8 9 8 7 7 8 7 7 8 6 6
10 9 6 9 13 13 12 14 12 6 5 6 0 13 9 9 6 15 6 0 9 5 3 4 7 3 5 8 8 11 4 3 2 1 2 1 0 0 2 2 4 5 4 4 5 6 6 6 7 8 7 6 9 9 8 9 10 9 9 8 10 7 6 8 8 8 8 8 8 8 8 8 7 8 8 7 7 7 7 6 6 7 7 6 6 7
13 10 10 13 8 6 4 11 7 12 6 11 13 2 3 9 6 3 4 1 1 4 5 3 4 4 6 6 6 5 2 1 2 1 2 2 2 3 3 4 4 4 4 5 6 4 8 7 7 7 6 5 7 8 8 10 11 9 9 9 6 6 7 8 8 8 8 8 7 7 8 7 9 8 7 7 8 8 8 6 6 6 6 7 7 8
8 12 6 7 10 11 12 11 10 6 6 12 19 13 9 6 3 4 4 5 1 3 4 4 4 5 5 4 5 3 1 2 1 2 3 3 3 3 4 4 4 4 5 4 4 4 7 8 7 8 5 4 5 5 7 10 10 9 8 6 6 7 7 8 7 8 7 7 7 7 7 7 7 6 5 7 7 7 7 7 7 7 7 7 7 7
6 10 5 12 8 10 8 7 0 1 10 5 3 2 1 3 2 5 4 5 6 4 3 3 3 3 5 4 4 5 2 3 3 3 4 3 3 3 4 4 3 4 4 5 5 5 5 9 10 8 7 5 5 4 4 5 9 8 8 5 6 7 7 7 8 8 7 7 6 6 6 5 6 6 6 6 8 8 7 6 6 7 5 6 6 7
5 1 0 3 3 1 3 2 1 1 2 3 0 1 1 2 1 2 5 6 2 3 7 5 4 5 4 5 7 1 3 5 5 3 4 4 4 3 3 4 4 4 4 4 5 5 7 8 9 10 10 6 4 5 4 4 6 9 5 4 5 6 7 8 8 7 6 6 5 5 6 6 4 5 5 6 6 7 7 8 8 8 6 6 7 7
2 0 1 3 1 5 7 3 4 4 1 3 1 0 0 0 1 1 2 2 4 5 4 2 6 7 8 7 5 7 5 6 6 4 5 5 5 4 4 4 4 4 4 5 4 5 6 8 9 9 9 8 4 6 6 6 6 5 6 6 5 6 7 7 7 7 6 6 6 5 6 7 6 6 5 5 5 5 6 6 6 6 7 7 7 7
4 3 1 1 2 6 2 2 3 2 3 2 4 4 4 3 2 2 1 0 2 2 3 4 4 4 5 5 5 8 7 5 7 7 6 5 6 5 4 4 4 5 4 4 4 5 6 7 9 9 8 8 5 6 7 7 6 5 5 5 5 6 7 7 7 7 7 7 6 6 6 6 8 8 6 6 6 6 5 4 5 7 7 7 7 6
2 5 4 4 4 2 2 0 1 2 3 5 5 5 4 5 5 1 2 3 4 5 4 2 1 5 6 4 4 6 8 5 5 7 8 6 5 5 5 5 4 5 5 6 4 5 7 8 9 8 9 7 4 6 8 8 7 7 7 5 3 4 7 6 5 5 5 5 5 5 4 5 5 4 5 4 2 2 1 2 3 3 1 0 2 6
5 6 2 4 1 3 10 8 9 5 5 7 7 9 7 4 5 4 3 3 3 5 5 5 3 1 1 3 6 6 7 6 4 5 6 6 6 5 5 5 5 5 5 4 5 5 6 6 9 10 9 6 5 7 9 9 8 8 7 6 5 3 6 5 5 5 4 4 4 4 4 4 5 4 4 4 4 3 4 5 4 2 3 2 2 5
9 8 8 7 8 10 3 6 12 2 0 4 10 11 9 7 7 7 7 6 5 4 5 7 6 3 3 1 1 4 7 8 7 5 6 4 4 4 5 7 7 6 5 5 7 5 6 5 6 9 9 6 6 8 8 8 7 8 7 7 6 3 5 6 7 6 5 5 5 4 5 5 6 5 6 5 5 3 5 3 4 4 3 4 4 3
Wind_Direction
114 130 178 202 213 205 212 194 196 171 127 93 92 111 196 199 283 283 273 264 270 52 233 230 240 251 264 261 266 244 180 234 252 254 245 244 234 227 229 226 227 227 235 184 188 183 188 192 190 188 182 194 204 196 187 178 182 180 170 155 163 161 145 140 140 140 136 129 102 78 101 111 97 84 96 76 63 51 49 48 54 75 78 96 109 111
64 162 243 222 210 192 207 187 97 98 63 129 113 163 270 152 249 241 240 11 323 167 293 270 258 262 259 267 262 242 154 233 232 242 246 244 234 231 227 231 227 230 268 149 188 198 186 191 190 185 186 186 194 201 186 188 183 180 175 167 162 159 160 154 152 146 136 117 152 147 141 124 113 120 118 104 66 73 64 41 55 61 66 79 92 113
103 200 237 226 147 114 63 144 152 156 160 63 185 185 324 269 246 280 266 309 279 129 260 278 264 264 263 261 268 232 221 237 226 224 236 235 239 233 229 232 233 216 221 194 209 188 195 192 192 187 190 196 203 192 191 189 177 181 178 175 165 163 164 158 149 145 131 97 75 92 128 129 105 40 67 93 89 88 82 62 36 48 63 85 94 101
4 283 250 176 141 123 58 88 130 114 84 163 107 141 227 235 51 297 299 357 8 166 268 4 315 279 276 256 255 252 228 241 242 236 245 238 240 237 227 220 220 220 214 207 198 198 193 192 191 189 194 195 195 194 192 190 185 178 180 178 169 165 163 158 126 101 83 81 84 74 71 59 56 128 104 90 87 87 88 74 41 41 50 56 97 96
196 216 338 148 159 165 172 125 121 146 242 250 179 185 231 228 232 186 251 310 310 337 48 311 291 281 260 265 270 264 274 256 258 247 253 255 242 248 262 243 218 220 210 210 197 197 188 191 199 196 191 180 196 198 194 189 186 179 179 176 173 165 158 134 122 117 116 108 82 83 76 79 93 72 91 102 77 76 94 97 67 53 46 60 86 90
278 259 92 105 137 152 141 145 202 156 220 289 226 193 213 215 229 269 335 9 5 335 346 54 325 290 285 267 253 274 324 290 260 238 252 251 250 241 243 242 230 230 211 203 198 195 194 197 192 190 187 191 198 199 194 185 183 176 174 171 171 156 143 139 135 137 137 142 134 128 130 125 104 121 150 148 150 147 131 119 109 67 52 58 78 80
210 244 132 165 141 163 167 190 236 162 192 129 268 197 212 212 202 166 203 70 307 250 294 34 215 282 305 273 257 276 273 263 276 233 253 255 257 238 236 243 232 220 213 209 198 189 189 198 191 195 196 197 196 200 178 178 182 176 171 168 167 161 147 143 145 148 146 148 149 152 154 152 155 146 230 30 70 123 113 94 96 85 62 47 88 89
148 251 110 83 97 131 148 213 243 165 133 237 254 167 177 153 180 209 159 184 237 256 288 53 127 257 292 269 219 238 257 271 280 271 262 260 256 248 240 239 231 219 207 196 198 196 199 193 190 193 197 192 195 179 174 177 175 176 173 166 165 159 154 154 154 158 164 153 156 147 143 150 154 164 154 152 121 89 118 107 95 95 77 61 60 107
165 189 166 184 170 142 186 208 179 156 148 219 236 136 143 173 169 122 130 143 137 33 286 315 175 301 241 271 308 8 259 272 263 261 262 258 257 258 255 245 236 223 208 196 196 197 195 195 201 198 191 192 175 177 181 181 175 167 162 161 158 161 159 159 161 161 167 162 159 152 145 138 104 120 136 130 124 126 123 111 100 98 93 83 67 84
300 189 205 180 164 208 217 237 164 163 182 253 129 88 82 80 73 104 95 94 343 58 265 188 177 219 276 220 252 350 214 261 258 258 262 263 260 258 257 256 242 229 214 207 209 200 201 202 198 187 159 165 189 175 167 159 155 161 157 162 165 165 165 162 163 165 165 161 154 157 149 143 132 130 118 135 138 135 133 122 122 116 117 119 109 97
239 297 177 136 199 199 121 37 175 191 150 133 97 71 24 39 26 22 62 79 35 246 257 192 202 176 284 211 188 164 219 208 249 277 278 284 283 268 254 252 234 218 210 206 203 197 194 181 172 160 177 181 169 169 168 166 169 164 166 166 172 169 163 167 166 166 168 161 162 170 154 151 141 147 147 141 146 142 139 138 140 138 140 140 134 129
355 10 153 249 109 105 103 80 22 80 132 135 106 123 61 345 11 35 343 40 150 261 267 278 195 175 211 288 274 241 283 244 215 241 265 281 271 269 281 272 247 224 212 199 187 184 166 161 171 168 178 176 180 172 177 177 172 171 170 168 167 170 173 172 168 169 169 166 169 172 160 157 156 153 160 161 160 166 153 151 146 143 134 143 141 140
262 222 244 323 208 140 121 87 7 32 78 88 98 88 119 248 33 303 23 265 206 229 223 34 127 20 237 245 279 284 263 262 226 218 231 251 276 281 278 254 250 229 201 195 194 179 182 183 180 185 183 173 180 186 182 181 177 173 171 172 169 176 177 176 169 172 170 168 169 168 166 158 156 159 160 162 160 166 160 157 150 156 156 155 152 169
267 273 306 256 56 230 150 149 175 64 213 137 154 145 116 133 221 263 268 271 307 295 251 212 189 255 288 279 230 245 250 242 247 229 232 236 248 267 286 296 262 216 210 205 193 193 193 190 190 188 182 185 184 183 182 179 178 176 175 176 175 177 177 175 174 174 171 174 168 170 165 159 159 162 162 163 162 162 162 161 162 165 163 165 167 163
235 300 244 136 242 178 185 202 181 162 165 203 89 160 179 150 159 215 199 214 223 219 272 274 110 232 135 239 288 248 268 293 278 265 251 253 253 265 278 279 282 243 222 205 200 201 197 195 188 187 186 186 186 184 181 180 181 175 178 179 180 174 180 176 178 173 175 170 167 168 166 162 164 161 163 165 163 158 162 169 169 170 170 168 164 162
216 235 264 203 293 161 189 200 109 92 73 222 166 63 110 221 134 227 202 178 270 332 333 212 209 190 188 266 290 254 273 282 270 278 278 271 256 267 276 259 250 239 225 208 212 208 206 194 186 186 188 188 184 183 182 182 182 181 182 181 183 179 176 178 177 180 173 171 167 164 164 168 162 159 154 153 159 159 165 172 173 169 172 167 152 145
47 265 297 335 43 179 186 122 173 146 192 207 108 202 209 163 142 349 23 42 95 49 255 141 283 275 300 285 250 255 259 262 291 279 269 262 266 309 272 262 234 231 220 212 212 208 196 185 191 190 187 184 184 185 189 188 186 185 178 180 181 178 175 179 181 177 176 168 164 167 165 162 162 165 168 169 167 163 164 169 171 168 167 154 153 147
152 234 306 101 214 306 123 189 94 27 145 100 193 230 128 99 108 140 229 347 69 211 272 149 231 284 46 280 340 351 252 265 263 260 256 277 274 275 264 261 229 217 218 215 213 203 193 192 188 189 191 192 192 189 188 191 188 188 184 180 179 177 179 182 177 178 174 168 166 164 167 170 170 171 173 168 164 160 159 164 161 157 158 167 159 149
133 258 308 333 106 307 350 94 29 351 29 148 194 194 126 240 238 289 93 271 221 266 276 280 256 253 193 244 26 265 215 244 250 250 273 276 272 254 264 270 231 212 209 208 206 197 192 191 192 190 193 194 196 195 194 186 183 186 187 186 181 182 182 178 179 175 172 171 167 170 173 172 173 173 171 169 160 157 165 168 170 172 166 149 151 147
127 178 279 341 132 279 11 133 198 201 5 48 85 101 103 99 169 130 199 177 120 261 25 284 90 259 175 221 190 228 207 217 227 209 232 243 248 251 253 265 231 207 210 208 208 205 199 196 192 190 188 188 189 188 186 182 183 191 187 184 185 178 176 175 176 172 173 178 171 172 169 176 172 172 172 167 163 166 172 172 170 166 162 165 153 154
204 164 244 284 311 103 182 205 204 162 171 136 120 192 173 35 248 112 5 147 173 189 189 289 299 255 240 200 182 213 206 216 186 204 235 239 248 243 246 256 235 218 210 209 207 204 198 195 190 190 191 188 183 186 182 184 189 188 182 191 186 178 179 181 179 175 180 174 180 170 174 174 173 171 166 163 168 166 171 172 171 171 162 146 161 154
183 190 200 143 47 220 236 262 209 193 190 180 179 190 184 144 159 167 252 58 143 126 244 167 262 266 256 160 207 199 219 206 230 194 219 244 243 253 256 231 202 215 214 206 210 200 195 188 187 186 181 176 176 185 187 189 189 193 194 191 184 181 183 180 180 182 177 181 176 177 174 174 171 165 163 166 169 171 171 172 173 165 154 164 160 161
174 144 107 187 208 209 207 269 263 231 34 216 187 236 188 183 139 154 199 230 35 247 102 189 358 277 180 169 207 188 232 183 218 196 227 246 249 259 281 275 240 216 200 200 200 197 190 187 186 188 187 186 188 189 188 190 194 195 193 189 189 184 187 182 179 179 177 178 178 178 171 167 173 166 170 172 175 175 175 173 168 165 164 164 162 164
90 113 149 291 314 310 310 307 356 111 129 313 281 140 139 192 190 199 202 175 185 178 187 256 260 264 17 18 255 274 274 280 275 204 217 243 271 275 273 269 251 247 238 210 196 183 184 182 180 182 192 190 193 193 194 194 195 194 195 193 185 192 182 177 176 176 174 178 177 172 168 174 172 173 176 180 180 177 176 171 169 167 168 165 161 164
165 242 167 131 17 338 346 336 329 317 124 214 168 200 196 205 198 130 91 71 219 214 169 162 240 264 201 325 321 31 323 294 265 250 216 240 267 268 282 278 259 237 191 200 194 187 180 182 189 197 195 196 197 196 193 194 196 193 196 192 191 190 180 177 172 173 176 174 173 175 176 178 177 181 183 183 180 182 175 174 170 172 170 162 166 165
186 164 166 181 204 215 219 204 215 206 198 194 222 194 207 188 192 179 239 199 229 232 153 208 246 240 293 318 329 338 357 290 270 249 253 218 246 276 278 275 275 219 211 202 191 181 197 199 200 201 200 200 201 198 194 196 195 195 195 194 185 181 180 181 170 176 173 177 179 180 182 184 182 187 186 184 184 183 179 175 173 171 172 171 166 166
184 188 186 189 204 226 232 233 54 98 85 189 212 191 202 204 201 201 222 191 222 215 171 222 232 250 277 301 265 259 266 246 264 287 251 254 248 252 257 263 252 230 213 202 201 201 197 208 209 205 202 202 200 199 198 195 194 194 191 189 188 186 181 179 176 177 179 180 183 181 188 187 188 185 186 187 184 177 175 175 173 173 174 176 172 170
70 184 204 204 212 227 236 219 184 150 179 204 198 202 201 192 193 192 201 225 136 100 252 239 205 255 255 215 245 256 261 262 265 268 277 270 261 244 245 255 245 239 241 214 203 203 210 213 207 206 205 199 201 199 204 203 196 191 189 190 186 184 182 180 178 179 181 180 185 189 190 188 181 183 184 181 176 176 174 170 174 182 179 173 178 181
167 206 213 213 224 230 233 213 174 179 185 195 199 195 193 197 189 202 219 221 130 209 236 250 150 225 249 230 224 222 217 233 229 234 232 237 254 264 253 246 245 238 224 208 222 217 215 212 211 207 201 200 192 198 200 197 200 196 195 192 188 184 188 178 176 181 183 183 189 193 184 176 177 175 172 173 173 176 177 179 180 178 178 185 187 186
152 242 207 208 224 234 239 205 181 187 205 197 197 200 195 191 201 207 218 214 201 227 241 253 202 232 248 241 197 228 197 226 237 245 275 253 241 242 243 247 246 244 224 225 226 220 218 220 213 204 197 197 200 199 197 198 199 198 193 192 187 187 187 169 182 181 185 190 193 183 175 174 173 175 174 173 181 183 179 178 176 179 185 191 190 182
179 221 199 201 223 237 239 219 173 200 184 201 218 205 199 204 208 209 213 217 217 246 253 258 265 264 256 149 223 218 214 248 300 268 239 237 236 237 240 242 243 243 237 234 234 229 222 219 210 194 198 204 202 201 199 201 198 194 195 191 188 189 183 178 180 186 187 191 185 176 170 171 177 173 180 183 177 177 178 178 178 182 187 188 188 184
174 252 41 116 210 242 243 223 194 201 203 207 208 213 218 212 213 211 211 212 193 221 234 247 254 254 255 127 247 182 228 232 237 239 241 245 236 235 237 239 239 240 240 237 234 231 223 213 205 204 207 207 205 199 198 198 195 189 200 194 190 184 173 179 184 185 186 184 177 175 173 174 172 176 181 175 180 179 177 174 176 183 187 187 189 192
180 175 193 163 222 237 251 198 167 151 105 259 238 224 216 213 207 178 210 210 208 207 222 228 238 246 255 212 226 234 205 239 241 244 248 249 242 228 231 235 238 240 239 239 235 229 220 216 211 210 213 209 201 199 203 189 178 197 195 187 185 167 175 183 183 182 183 180 176 173 170 169 173 177 176 180 175 170 170 177 180 186 188 197 194 173
168 194 213 157 223 234 237 128 135 135 215 221 229 228 214 211 181 189 216 217 218 200 217 225 239 251 251 249 234 245 231 234 237 239 232 247 260 249 244 238 241 239 243 245 240 235 232 223 222 218 215 209 204 199 183 183 191 185 165 165 161 176 180 179 182 180 178 171 172 165 165 167 169 173 173 169 170 170 176 177 191 192 189 177 178 193
187 197 217 159 218 223 148 119 151 217 224 229 342 159 204 197 185 205 222 216 215 218 235 250 254 255 254 252 245 243 246 252 250 254 280 13 240 242 244 246 241 241 242 243 245 240 232 225 222 217 207 200 183 165 158 175 172 156 154 157 164 170 170 177 172 172 171 170 164 157 160 165 169 171 169 170 170 172 179 184 185 184 187 187 194 194
183 195 158 235 154 44 163 183 232 226 238 339 273 258 296 188 187 193 245 243 222 215 214 230 240 247 253 257 258 252 239 258 286 262 217 231 230 233 238 248 254 243 241 234 232 239 232 227 216 206 202 158 158 170 171 169 151 146 150 144 151 155 163 165 168 166 159 164 163 165 165 162 162 165 168 169 169 176 185 185 188 188 185 191 201 206
188 186 194 225 181 214 179 210 232 346 329 281 262 230 169 155 162 172 215 238 227 223 218 226 239 246 253 257 257 260 286 340 297 279 163 217 236 233 234 249 246 243 238 245 223 241 228 208 198 194 168 165 163 155 155 140 139 136 139 147 152 150 156 162 170 174 172 167 159 159 161 166 170 173 167 165 170 181 185 186 189 190 179 193 202 200
185 194 183 207 209 207 215 228 234 237 245 245 235 56 169 168 161 178 182 253 242 217 218 216 230 243 245 249 253 259 50 312 284 276 237 219 249 237 243 251 280 298 300 284 290 269 205 187 155 143 146 144 146 147 140 143 143 142 147 152 150 151 160 172 185 179 169 168 167 170 169 168 163 163 165 165 179 187 192 190 190 193 183 195 198 204
208 211 186 204 193 189 217 226 218 218 235 241 245 174 183 170 159 140 181 240 254 188 201 191 220 234 234 238 247 128 118 251 259 266 300 283 318 330 291 292 299 282 269 235 199 165 141 131 131 132 127 133 138 147 144 145 144 147 154 157 159 159 165 182 182 174 176 173 162 156 155 159 162 165 168 178 187 186 190 192 194 187 176 202 205 215
211 215 211 222 219 203 206 222 228 213 241 251 185 210 173 138 119 123 178 246 242 156 181 174 210 226 230 231 189 148 192 242 251 264 237 273 275 295 315 312 346 11 26 33 42 107 124 120 106 112 133 145 148 141 141 140 145 148 151 154 155 164 178 184 178 169 152 144 149 154 155 159 163 170 175 187 188 185 194 180 166 178 185 196 199 201
202 209 209 216 217 220 218 236 260 263 261 200 191 183 157 159 138 164 210 234 166 170 175 186 203 216 211 183 153 194 213 217 238 347 274 291 303 3 6 32 56 72 86 80 95 101 102 102 123 138 143 139 138 140 141 141 138 144 148 154 164 182 178 158 149 151 152 146 146 152 159 164 171 179 187 186 188 185 182 180 185 177 181 191 193 191
197 198 213 213 222 219 216 225 232 265 236 156 288 155 170 118 198 212 224 107 143 175 216 191 201 174 148 178 184 210 230 342 321 76 64 30 70 320 7 35 61 58 52 75 87 96 93 91 96 97 99 121 133 134 136 134 136 140 148 160 184 172 133 143 145 142 147 154 156 159 164 170 178 183 185 179 166 171 183 184 176 180 183 179 180 195
184 186 187 202 206 233 203 228 211 229 232 136 120 79 277 191 231 140 134 1 85 154 148 209 182 211 163 210 217 230 286 6 37 38 34 47 49 43 25 38 53 70 78 82 79 80 105 101 98 100 109 116 125 134 138 138 139 148 160 174 163 134 137 137 145 149 149 147 149 158 166 172 176 179 174 174 175 175 183 171 172 175 171 178 186 197
167 205 188 221 181 204 199 211 212 211 99 158 148 177 202 198 184 160 120 123 237 153 167 158 224 194 189 174 190 180 144 113 69 86 83 58 64 49 56 56 53 54 57 51 73 91 97 95 91 91 82 85 106 126 139 141 146 154 156 146 131 133 133 139 139 135 137 145 155 160 168 174 175 172 166 168 166 172 173 173 178 178 184 183 185 194
210 212 181 206 178 205 215 214 185 227 162 169 54 18 97 124 129 162 140 147 157 225 188 137 204 188 178 167 140 151 134 195 169 155 137 146 95 93 90 88 88 99 97 97 95 94 97 117 115 107 92 83 97 105 117 132 136 140 139 144 134 135 133 131 131 134 142 150 157 164 160 154 161 167 171 170 168 174 179 177 169 180 188 176 192 198
359 170 12 99 263 22 2 126 19 11 197 195 7 27 109 87 55 115 130 125 220 175 169 169 182 161 162 165 131 170 172 159 141 121 108 113 108 103 111 97 89 89 100 100 90 101 120 116 112 113 110 87 79 87 83 93 127 132 132 119 120 124 125 128 129 137 147 147 151 152 145 152 161 167 174 173 181 186 183 178 181 187 181 184 200 203
260 128 66 166 276 155 238 176 155 195 200 201 214 299 188 91 178 147 112 134 153 149 177 217 162 166 167 176 164 155 154 158 139 140 133 121 127 124 112 114 96 96 99 94 90 107 104 109 104 101 103 95 60 71 66 73 58 84 111 112 116 119 124 127 132 134 138 151 147 142 154 160 167 167 169 176 178 182 178 174 177 181 182 188 198 205
287 171 74 302 177 180 263 192 190 336 283 250 187 179 201 208 235 256 223 112 122 123 145 181 141 138 154 164 178 145 151 156 150 150 150 148 147 145 135 129 124 91 70 88 99 100 99 103 112 112 105 96 85 81 81 74 68 63 85 95 107 118 121 128 141 148 156 153 153 158 164 167 163 164 171 178 173 176 178 181 171 184 195 193 195 192
164 109 194 193 183 278 36 23 317 314 300 252 228 242 219 173 168 143 121 121 123 121 111 100 144 168 174 179 155 140 138 176 168 161 151 153 144 149 156 142 130 125 123 118 108 119 124 128 117 118 113 109 105 96 82 69 55 38 44 43 67 111 119 125 124 124 134 140 141 156 155 152 158 162 156 144 110 58 75 151 177 184 179 22 160 190
105 186 190 104 160 248 225 210 149 154 230 218 214 212 204 186 159 145 114 125 142 142 154 129 72 43 143 152 158 156 151 162 165 156 156 159 161 146 139 130 123 117 101 85 90 93 99 110 123 121 112 103 91 82 75 60 48 38 29 25 18 57 111 110 106 102 97 95 91 84 87 75 70 62 75 96 104 88 45 40 111 143 164 222 242 211
183 188 151 172 187 227 208 145 183 171 128 222 200 187 176 170 152 150 170 178 190 188 167 140 122 107 122 86 131 153 152 154 164 145 141 149 150 149 143 143 136 127 122 118 105 99 105 103 103 105 97 89 78 75 69 59 36 29 20 21 12 48 109 120 107 97 95 91 86 91 91 89 81 73 77 82 103 123 123 77 21 71 124 147 167 176